[[{"header":{"parameterUnit":"m.s-1","parameterCategory":1,"la1":30.2991,"la2":30.254,"lo1":-89.0895,"lo2":-89.0444,"dy":0.0017,"dx":0.0017,"nx":28,"ny":28,"refTime":"2024-04-26T09:00:00:Z","depth":0,"parameterNumber":2,"parameterNumberName":"U-component_of_WINDS"},"data":[0,0,0,0,0,0,0,0,0,0,0,0,0,0,0,0,0,0,0,0,0,0,0,0,0,0,0,0,0,0,0,0,0,0,0,0,0,0,0,0,0,0,0,0,0,0,0,0,0,0,0,0,0,0,0,0,0,0,-7.7365,-7.7367,0,-7.7471,-7.7472,-7.7473,-7.7401,-7.7398,-7.7395,-7.7392,-7.7494,-7.75,-7.7506,0,0,0,0,0,0,0,0,0,0,0,0,0,-7.7098,-7.7104,-7.7365,-7.7367,-7.7368,-7.7471,-7.7472,-7.7473,-7.7402,-7.7398,-7.7394,-7.739,-7.7492,-7.7499,-7.7506,0,0,0,0,0,0,0,0,0,0,0,0,0,-7.721,-7.7105,-7.7365,-7.7345,-7.7344,-7.747,-7.7472,-7.7474,-7.7403,-7.7398,-7.7393,-7.7389,-7.749,-7.7499,-7.7507,-7.7657,0,0,-7.7533,-7.7537,0,0,0,0,0,0,0,0,-7.7204,-7.722,-7.7347,-7.7346,-7.7346,-7.7418,-7.7415,-7.7535,-7.7404,-7.738,-7.7392,-7.7386,-7.7473,-7.7482,-7.7512,-7.7662,-7.7666,-7.7534,-7.7539,-7.7543,-7.7545,0,0,0,0,0,0,0,-7.7196,-7.7215,-7.7407,-7.7348,-7.7348,-7.7329,-7.734,-7.7438,-7.7452,-7.7382,-7.7377,-7.7391,-7.7471,-7.7504,-7.7514,-7.7668,-7.7534,-7.7542,-7.7547,-7.755,-7.7946,-7.7951,0,0,0,0,0,0,-7.7191,-7.7209,-7.7403,-7.741,-7.7262,-7.7338,-7.735,-7.74,-7.7451,-7.7454,-7.7395,-7.7387,-7.7492,-7.7504,-7.7518,-7.7695,-7.7543,-7.7551,-7.7556,-7.794,-7.7947,-7.7953,0,0,0,0,0,0,-7.7185,-7.7209,-7.7399,-7.7308,-7.7331,-7.7348,-7.7404,-7.7404,-7.7437,-7.7461,-7.7462,-7.7426,-7.7489,-7.7506,-7.7623,-7.7698,-7.7555,-7.7563,-7.7934,-7.7942,-7.795,-7.8053,0,0,0,0,0,0,-7.7178,-7.7207,-7.7265,-7.731,-7.7336,-7.7504,-7.7409,-7.741,-7.7453,-7.7444,-7.7491,-7.7494,-7.7486,-7.7611,-7.7632,-7.7707,-7.7569,-7.7927,-7.7938,-7.7947,-7.8043,-7.8064,-7.8081,0,0,0,0,0,-7.7169,-7.7289,-7.7268,-7.7292,-7.7409,-7.7509,-7.7524,-7.7514,-7.7459,-7.7517,-7.7532,-7.7492,-7.7688,-7.7624,-7.7647,-7.7726,-7.7922,-7.7935,-7.7946,-7.8034,-7.8059,-7.8081,0,0,0,0,0,0,-7.7249,-7.7294,-7.7272,-7.7411,-7.7457,-7.7497,-7.7568,-7.7541,-7.7602,-7.7591,-7.7575,-7.7587,-7.771,-7.773,-7.7658,-7.7874,-7.7796,-7.7813,-7.7855,-7.7879,-7.7898,-7.7888,-7.7577,0,0,0,0,0,-7.7284,-7.7363,-7.7397,-7.7516,-7.7541,-7.7552,-7.7594,-7.7584,-7.763,-7.7648,-7.7672,-7.7717,-7.7789,-7.7836,-7.7903,-7.8048,-7.8055,-7.8113,-7.8133,-7.8148,-7.8162,-7.8238,-7.8264,-7.7992,-7.7992,-7.7992,0,0,-7.7354,-7.7389,-7.7439,-7.7533,-7.7568,-7.7648,-7.7568,-7.7656,-7.7715,-7.7661,-7.7773,-7.7794,-7.7843,-7.7974,-7.8033,-7.7995,-7.8239,-7.8163,-7.8176,-7.8181,-7.8253,-7.8279,-7.8302,-7.8,-7.7999,-7.7997,0,0,-7.7524,-7.7559,-7.7662,-7.7699,-7.7753,-7.776,-7.7785,-7.783,-7.7841,-7.7955,-7.7916,-7.7986,-7.811,-7.8146,-7.8181,-7.8369,-7.8333,-7.8391,-7.8489,-7.8564,-7.8585,-7.8604,-7.8668,-7.8692,-7.8406,-7.8406,-7.8406,0,-7.7604,-7.7725,-7.7717,-7.7809,-7.7851,-7.781,-7.7912,-7.7948,-7.8021,-7.805,-7.8008,-7.8163,-7.8193,-7.8332,-7.8378,-7.8409,-7.8435,-7.8383,-7.8583,-7.8602,-7.8619,-7.868,-7.8705,-7.8412,-7.8412,-7.8411,-7.841,0,-7.7819,-7.7904,-7.798,-7.8054,-7.8105,-7.8202,-7.8208,-7.8261,-7.8247,-7.8258,-7.8374,-7.841,-7.8483,-7.8517,-7.8503,-7.8654,-7.8628,-7.8586,-7.8506,-7.8652,-7.8708,-7.8732,-7.8422,-7.8419,-7.8417,-7.8416,0,0,-7.8037,-7.8108,-7.8136,-7.8169,-7.8228,-7.8292,-7.8388,-7.8462,-7.8506,-7.8559,-7.8637,-7.8745,-7.8705,-7.8745,-7.8736,-7.8803,-7.8946,-7.8751,-7.8752,-7.8783,-7.9112,-7.9141,-7.9168,-7.8925,-7.893,-7.8933,-7.9106,0,-7.8207,-7.8374,-7.8372,-7.8526,-7.8603,-7.8567,-7.865,-7.8694,-7.8709,-7.8775,-7.879,-7.8866,-7.881,-7.8833,-7.8898,-7.8915,-7.9011,-7.8903,-7.8994,-7.8998,-7.8978,-7.9198,-7.9229,-7.939,-7.9129,-7.9133,-7.9136,0,-7.8426,-7.8488,-7.8651,-7.8699,-7.8731,-7.8806,-7.8874,-7.8939,-7.8989,-7.8994,-7.9041,-7.9022,-7.9118,-7.9041,-7.9171,-7.9097,-7.9136,-7.915,-7.9156,-7.916,-7.9072,-7.9204,-7.9442,-7.9464,-7.9171,-7.9168,-7.9166,0,-7.8564,-7.8689,-7.8802,-7.8832,-7.8892,-7.8945,-7.8972,-7.9018,-7.9063,-7.9123,-7.9151,-7.9222,-7.9259,-7.9313,-7.9313,-7.9257,-7.9444,-7.9367,-7.9449,-7.9449,-7.9485,-7.9482,-7.9728,-7.9518,-7.9517,-7.9517,-7.9516,0,-7.8751,-7.8851,-7.8865,-7.8934,-7.9045,-7.9043,-7.9152,-7.9174,-7.9216,-7.9287,-7.9262,-7.9329,-7.9328,-7.9396,-7.9398,-7.9504,-7.9522,-7.9528,-7.9526,-7.9527,-7.9526,-7.9548,-7.9535,-7.9523,-7.9522,-7.9521,-7.952,0,-7.8922,-7.8936,-7.9057,-7.9105,-7.912,-7.9199,-7.9239,-7.9305,-7.9319,-7.941,-7.9431,-7.9452,-7.9531,-7.9539,-7.9631,-7.9632,-7.976,-7.9748,-7.9743,-7.9739,-7.9819,-7.981,-8.0084,-8.0119,-7.989,-7.9892,-7.9894,0,-7.9038,-7.9114,-7.9172,-7.922,-7.925,-7.9327,-7.9373,-7.9375,-7.9424,-7.9488,-7.9545,-7.9624,-7.9685,-7.9814,-7.9836,-7.9906,-7.9893,-7.9985,-7.9903,-7.9903,-7.989,-7.9884,-7.9891,-7.9999,-8.0001,-8.0003,-8.0005,0,-7.9242,-7.9246,-7.9315,-7.9388,-7.9445,-7.9501,-7.9554,-7.9594,-7.9602,-7.9659,-7.9741,-7.9789,-7.9885,-7.9961,-8.0031,-8.0057,-8.0032,-8.0032,-8.0054,-8.0053,-8.0046,-8.0048,-7.9781,-8.0024,-8.0022,-8.0021,-8.002,-8.0019,-7.9386,-7.9452,-7.9503,-7.9581,-7.9623,-7.9673,-7.9737,-7.976,-7.9829,-7.9908,-7.9905,-7.9995,-8.0044,-8.0136,-8.0168,-8.0238,-8.0206,-8.0239,-8.0247,-8.0254,-8.026,-8.004,-8.0251,-8.025,-8.025,-8.0249,-8.0249,0,-7.9585,-7.9618,-7.969,-7.9766,-7.9828,-7.9803,-7.9861,-7.9913,-7.9993,-8.0042,-8.0105,-8.0199,-8.0275,-8.0305,-8.0378,-8.0428,-8.0418,-8.0447,-8.044,-8.0446,-8.0285,-8.0257,-8.0453,-8.0453,-8.0453,-8.0453,-8.0453,-8.0453,-7.9696,-7.9806,-7.9816,-7.9946,-7.9978,-8.0067,-8.0102,-8.0149,-8.0188,-8.0295,-8.0358,-8.0378,-8.0419,-8.0496,-8.0563,-8.057,-8.0597,-8.063,-8.0631,-8.0479,-8.0458,-8.0438,-8.0411,-8.0636,-8.0637,-8.0786,-8.0787,-8.0788]},{"header":{"parameterUnit":"m.s-1","parameterCategory":1,"la1":30.2991,"la2":30.254,"lo1":-89.0895,"lo2":-89.0444,"dy":0.0017,"dx":0.0017,"nx":28,"ny":28,"refTime":"2024-04-26T09:00:00:Z","depth":0,"parameterNumber":3,"parameterNumberName":"V-component_of_WINDS"},"data":[0,0,0,0,0,0,0,0,0,0,0,0,0,0,0,0,0,0,0,0,0,0,0,0,0,0,0,0,0,0,0,0,0,0,0,0,0,0,0,0,0,0,0,0,0,0,0,0,0,0,0,0,0,0,0,0,0,0,3.1893,3.1893,0,3.1889,3.1889,3.1889,3.1865,3.1864,3.1864,3.1863,3.1856,3.1856,3.1857,0,0,0,0,0,0,0,0,0,0,0,0,0,3.1876,3.1876,3.1893,3.1893,3.1893,3.1889,3.1889,3.1889,3.1865,3.1864,3.1864,3.1863,3.1856,3.1856,3.1857,0,0,0,0,0,0,0,0,0,0,0,0,0,3.1879,3.1876,3.1893,3.188,3.1879,3.1889,3.1889,3.1889,3.1865,3.1864,3.1863,3.1862,3.1856,3.1856,3.1857,3.1878,0,0,3.1858,3.1858,0,0,0,0,0,0,0,0,3.1879,3.1879,3.1882,3.1881,3.188,3.1877,3.1881,3.1885,3.1865,3.187,3.1863,3.1862,3.1863,3.1863,3.1864,3.1877,3.1877,3.1858,3.1859,3.1859,3.1859,0,0,0,0,0,0,0,3.1879,3.1879,3.1891,3.1882,3.1881,3.1874,3.1874,3.1882,3.1872,3.187,3.1868,3.1868,3.1862,3.1864,3.1864,3.1877,3.1858,3.1859,3.1859,3.1859,3.1909,3.191,0,0,0,0,0,0,3.188,3.1879,3.1891,3.1891,3.1877,3.1875,3.1874,3.1878,3.1871,3.187,3.1869,3.1867,3.1863,3.1863,3.1864,3.1889,3.1859,3.1859,3.186,3.1908,3.1909,3.191,0,0,0,0,0,0,3.188,3.1882,3.1891,3.1885,3.1886,3.1876,3.1881,3.1879,3.188,3.1871,3.1869,3.1872,3.1863,3.1863,3.1875,3.1888,3.186,3.186,3.1907,3.1908,3.191,3.1939,0,0,0,0,0,0,3.188,3.1882,3.189,3.1885,3.1886,3.1904,3.1882,3.1879,3.1882,3.1879,3.1873,3.1872,3.1862,3.1874,3.1876,3.1888,3.1861,3.1906,3.1908,3.1909,3.1937,3.1941,3.1945,0,0,0,0,0,3.1879,3.1897,3.189,3.1892,3.1896,3.1904,3.1905,3.1894,3.1883,3.1891,3.1885,3.1872,3.1887,3.1876,3.1877,3.189,3.1905,3.1907,3.1909,3.1935,3.194,3.1945,0,0,0,0,0,0,3.1901,3.1896,3.1889,3.1905,3.1906,3.19,3.191,3.19,3.1903,3.19,3.1886,3.1885,3.1899,3.1896,3.1884,3.1911,3.1894,3.1896,3.1913,3.1918,3.1922,3.1922,3.1861,0,0,0,0,0,3.1908,3.1916,3.1911,3.1926,3.1927,3.1919,3.1922,3.1914,3.1913,3.1913,3.1908,3.1907,3.1912,3.1914,3.1918,3.1937,3.1935,3.1946,3.1951,3.1954,3.1956,3.1967,3.1972,3.1918,3.1918,3.1918,0,0,3.1922,3.192,3.1926,3.1931,3.193,3.1938,3.1919,3.1927,3.1933,3.1914,3.1925,3.1922,3.192,3.1936,3.1943,3.1934,3.1971,3.1957,3.196,3.196,3.197,3.1975,3.198,3.1919,3.1919,3.1919,0,0,3.1952,3.1951,3.1965,3.1966,3.1966,3.1961,3.1964,3.1961,3.1958,3.1971,3.1957,3.1963,3.1971,3.1971,3.1971,3.2005,3.1993,3.2006,3.2028,3.2039,3.2043,3.2047,3.2059,3.2064,3.2009,3.2009,3.2009,0,3.1969,3.1981,3.1973,3.1984,3.1986,3.1971,3.1985,3.1986,3.1986,3.1989,3.1979,3.199,3.1988,3.2004,3.2013,3.2014,3.2017,3.2006,3.2043,3.2047,3.205,3.2062,3.2067,3.201,3.201,3.201,3.201,0,3.2003,3.2012,3.2023,3.2027,3.2031,3.2043,3.2036,3.2041,3.2034,3.203,3.2043,3.204,3.2044,3.2047,3.2039,3.2063,3.2058,3.2046,3.2028,3.2057,3.2068,3.2072,3.2013,3.2012,3.2012,3.2011,0,0,3.2044,3.2045,3.2049,3.2051,3.2052,3.2058,3.207,3.2076,3.2081,3.2083,3.2093,3.2101,3.2091,3.2093,3.2085,3.2094,3.2122,3.2082,3.2081,3.209,3.2149,3.2158,3.2163,3.2115,3.2116,3.2116,3.215,0,3.2073,3.2094,3.2088,3.2109,3.2118,3.2106,3.2117,3.2118,3.2115,3.2122,3.2118,3.2125,3.2111,3.2112,3.2121,3.2117,3.2134,3.2115,3.2123,3.2124,3.2124,3.2169,3.2178,3.2209,3.2154,3.2155,3.2155,0,3.2109,3.2115,3.2138,3.2139,3.2143,3.2152,3.2158,3.2165,3.2167,3.2164,3.2167,3.2158,3.217,3.2153,3.217,3.2157,3.216,3.2159,3.216,3.216,3.2141,3.217,3.2219,3.2223,3.2161,3.2161,3.216,0,3.2137,3.2151,3.2167,3.2169,3.2171,3.2178,3.2179,3.218,3.2185,3.219,3.2192,3.2198,3.2201,3.2205,3.2198,3.2186,3.2216,3.2198,3.2214,3.2214,3.2219,3.2219,3.2269,3.2222,3.2222,3.2222,3.2222,0,3.217,3.2185,3.218,3.219,3.2206,3.2199,3.2215,3.2215,3.2216,3.2226,3.2215,3.2223,3.2214,3.2222,3.2216,3.2231,3.2232,3.223,3.2229,3.2231,3.2231,3.2233,3.223,3.2223,3.2223,3.2223,3.2223,0,3.2204,3.2201,3.2218,3.222,3.222,3.2233,3.2233,3.2242,3.224,3.2252,3.2255,3.225,3.2259,3.2253,3.2261,3.2258,3.2278,3.2273,3.2278,3.2276,3.2292,3.2291,3.2345,3.2352,3.2301,3.2301,3.2302,0,3.2225,3.2236,3.224,3.2247,3.2249,3.2259,3.2264,3.2258,3.2264,3.2269,3.2277,3.2286,3.2292,3.2308,3.2305,3.2311,3.2307,3.2325,3.2307,3.231,3.2307,3.2307,3.2308,3.2328,3.2329,3.2329,3.233,0,3.2263,3.2262,3.227,3.228,3.2287,3.2293,3.2299,3.2304,3.2299,3.2306,3.2316,3.2321,3.2332,3.234,3.2347,3.2347,3.2338,3.2336,3.234,3.2342,3.2345,3.2344,3.2287,3.2334,3.2334,3.2334,3.2333,3.2333,3.2291,3.2301,3.2306,3.2317,3.2321,3.2327,3.2336,3.2336,3.2345,3.2354,3.235,3.2362,3.2365,3.2373,3.2375,3.2384,3.2377,3.2382,3.2384,3.2385,3.2388,3.2344,3.2385,3.2385,3.2385,3.2385,3.2385,0,3.2329,3.2332,3.2342,3.2351,3.236,3.2353,3.2359,3.2367,3.2378,3.2383,3.239,3.2403,3.2412,3.2411,3.2419,3.2427,3.2423,3.2429,3.2428,3.2429,3.2394,3.239,3.2433,3.2433,3.2433,3.2433,3.2433,3.2433,3.2349,3.2367,3.2367,3.2387,3.239,3.2403,3.2407,3.2413,3.2417,3.2432,3.244,3.244,3.2443,3.2452,3.246,3.246,3.2463,3.2471,3.2469,3.2436,3.2431,3.2427,3.2423,3.2472,3.2472,3.2503,3.2504,3.2504]}]]